Flag for U.S.A. Weather past 2 weeks in Lansing, Michigan, U.S.A.

Now
23 °F

Light snow. Mostly cloudy.


Feels Like: 9 °F
Forecast: 11 / 21 °F
Wind: 17 mph from Northwest

Location: Capital City Airport

Current Time: Jan 30, 2015 at 12:29:24 AM

Latest Report: Jan 29, 2015 at 11:53 PM


Visibility: 4 mi

Pressure: 30.19 "Hg

Humidity: 74%

Dew point: 16 °F

Location of LansingLocation

Historic Weather in Lansing — Graph

°F

Lansing temperature yesterday

Maximum temperature yesterday: 32 °F (at 10:53 AM)
Minimum temperature yesterday: 26 °F (at 12:53 AM)
Average temperature yesterday: 30 °F

Past Weeks' High & Low Weather Summary

 TemperatureHumidityPressure
High44 °F (Jan 17, 3:53 PM)96% (Jan 25, 12:53 AM)30.45 "Hg (Jan 25, 12:53 AM)
Low8 °F (Jan 26, 7:53 AM)39% (Jan 28, 6:53 PM)29.59 "Hg (Jan 24, 2:53 PM)
Average26 °F76%30.02 "Hg
* Reported Jan 14 10:53 PM — Jan 29 10:53 PM, Lansing, Weather by CustomWeather, © 2014

Note: Actual official high and low records may vary slightly from our data, if they occured in-between our weather recording intervals... More about our weather records

Advertising

Lansing weather history for previous 24 hours

 ConditionsComfort  
Time TempWeatherWind HumidityBarometerVisibility
10:53 PM
Jan 29
27 °FMostly cloudy.16 mph69%30.14 "Hg8 mi
9:53 PM29 °FOvercast.15 mph66%30.10 "Hg10 mi
8:53 PM30 °FOvercast.14 mph72%30.07 "Hg10 mi
7:53 PM31 °FOvercast.14 mph69%30.05 "Hg10 mi
6:53 PM31 °FMostly cloudy.15 mph85%30.01 "Hg9 mi
6:02 PM31 °FIce fog.9 mph89%29.93 "Hg4 mi
5:53 PM31 °FIce fog.10 mph89%29.96 "Hg2 mi
4:53 PM32 °FOvercast.10 mph82%29.90 "Hg5 mi
4:01 PM31 °FIce fog.10 mph85%29.84 "Hg4 mi
2:50 PM31 °FLight snow. Ice fog.12 mph89%29.82 "Hg1 mi
1:53 PM30 °FLight snow. Ice fog.13 mph92%29.79 "Hg1 mi
12:58 PM31 °FLight snow. Mostly cloudy.8 mph82%29.75 "Hg1 mi
12:53 PM31 °FLight snow. More clouds than sun.10 mph82%29.78 "Hg1 mi
12:02 PM31 °FOvercast.5 mph82%29.75 "Hg8 mi
11:53 AM31 °FMostly cloudy.6 mph82%29.78 "Hg7 mi
10:53 AM32 °FOvercast.No wind75%29.78 "Hg9 mi
9:53 AM31 °FIce fog.7 mph79%29.76 "Hg9 mi
8:53 AM30 °FIce fog.9 mph79%29.78 "Hg8 mi
7:53 AM30 °FIce fog.12 mph75%29.78 "Hg10 mi
6:53 AM30 °FIce fog.10 mph75%29.80 "Hg9 mi
5:53 AM29 °FMostly cloudy.12 mph75%29.83 "Hg10 mi
4:53 AM29 °FIce fog.13 mph75%29.86 "Hg10 mi
3:53 AM28 °FLight freezing rain. Overcast.9 mph78%29.92 "Hg5 mi
2:53 AM27 °FPassing clouds.15 mph66%29.94 "Hg10 mi
1:53 AM27 °FPassing clouds.20 mph63%29.98 "Hg10 mi
12:53 AM26 °FOvercast.16 mph66%30.03 "Hg10 mi
Weather by CustomWeather, © 2014

See weather overviewHow to use our weather pages